Location: Newark
(46.7000°N, 60.6000°W)
Time: 21:43:46
(UTC+00:00)

Vanguard 1 Rocket - Pass Details

Date: 04 November 2020
Orbit: 656 x 4221 km, 34.3° (Epoch: 30 November)

Event Time Altitude Azimuth Distance (km) Brightness Sun altitude
Rises 10:50:24 0° 213° (SSW) 5,578 11.3 -0.7°
Reaches altitude 10° 10:56:38 10° 193° (SSW) 3,783 10.7 0.3°
Maximum altitude 11:01:04 14° 164° (SSE) 2,886 10.6 1.0°
Drops below altitude 10° 11:04:33 10° 132° (SE) 2,810 11.6 1.5°
Sets 11:07:59 0° 107° (ESE) 3,397 12.9 2.0°
